| time (UTC) | temp C | wind direction | speed KPH | gust KPH | rain 1hr cm | rain 24hr cm | rain mn cm | humidity % | barometer mb |
| 20260505223934 | 10 | 14 | 8.0 | 14.5 | 0.00 | 0.00 | 0.00 | 92 | 1008.8 |
| 20260505222814 | 10 | 32 | 4.8 | 8.0 | 0.00 | 0.00 | 0.00 | 92 | 1008.8 |
| 20260505221532 | 10 | 23 | 4.8 | 9.7 | 0.00 | 0.00 | 0.00 | 92 | 1008.8 |
| 20260505220332 | 10 | 23 | 8.0 | 11.3 | 0.00 | 0.00 | 0.00 | 91 | 1008.8 |
| 20260505215119 | 10 | 0 | 6.4 | 11.3 | 0.00 | 0.00 | 0.00 | 91 | 1008.8 |
| 20260505213918 | 11 | 23 | 4.8 | 11.3 | 0.00 | 0.00 | 0.00 | 91 | 1008.8 |
| 20260505212736 | 11 | 23 | 8.0 | 14.5 | 0.00 | 0.00 | 0.00 | 90 | 1008.8 |
| 20260505211535 | 11 | 33 | 4.8 | 8.0 | 0.00 | 0.00 | 0.00 | 90 | 1008.8 |
| 20260505210435 | 11 | 23 | 12.9 | 22.5 | 0.00 | 0.00 | 0.00 | 90 | 1008.8 |
| 20260505205214 | 11 | 40 | 8.0 | 11.3 | 0.00 | 0.00 | 0.00 | 89 | 1008.8 |
| 20260505204012 | 11 | 23 | 6.4 | 11.3 | 0.00 | 0.00 | 0.00 | 89 | 1008.8 |
| 20260505202812 | 11 | 39 | 12.9 | 17.7 | 0.00 | 0.00 | 0.00 | 89 | 1008.8 |
| 20260505201611 | 12 | 17 | 11.3 | 12.9 | 0.00 | 0.00 | 0.00 | 89 | 1008.8 |
| 20260505200429 | 12 | 41 | 9.7 | 11.3 | 0.00 | 0.00 | 0.00 | 89 | 1008.8 |
| 20260505195209 | 12 | 40 | 11.3 | 19.3 | 0.00 | 0.00 | 0.00 | 90 | 1008.8 |
| 20260505194007 | 12 | 23 | 9.7 | 19.3 | 0.00 | 0.00 | 0.00 | 92 | 1008.8 |
| 20260505192806 | 12 | 23 | 11.3 | 17.7 | 0.00 | 0.00 | 0.00 | 93 | 1008.8 |
| 20260505191605 | 12 | 31 | 4.8 | 11.3 | 0.00 | 0.00 | 0.00 | 94 | 1008.8 |
| 20260505190424 | 12 | 31 | 4.8 | 9.7 | 0.00 | 0.00 | 0.00 | 94 | 1007.1 |
| 20260505185202 | 12 | 23 | 3.2 | 4.8 | 0.00 | 0.00 | 0.00 | 94 | 1008.8 |
| 20260505184001 | 12 | 36 | 3.2 | 6.4 | 0.00 | 0.00 | 0.00 | 94 | 1008.8 |
| 20260505182800 | 12 | 15 | 3.2 | 6.4 | 0.00 | 0.00 | 0.00 | 94 | 1008.8 |
| 20260505181559 | 12 | 36 | 4.8 | 8.0 | 0.00 | 0.00 | 0.00 | 93 | 1008.8 |
| 20260505180358 | 12 | 45 | 4.8 | 8.0 | 0.00 | 0.00 | 0.00 | 93 | 1008.8 |
| 20260505175156 | 13 | 40 | 6.4 | 8.0 | 0.00 | 0.00 | 0.00 | 92 | 1008.8 |
| 20260505173956 | 13 | 45 | 4.8 | 8.0 | 0.00 | 0.00 | 0.00 | 92 | 1008.8 |
| 20260505172754 | 13 | 45 | 6.4 | 8.0 | 0.00 | 0.00 | 0.00 | 92 | 1008.8 |
| 20260505171553 | 13 | 51 | 8.0 | 12.9 | 0.00 | 0.00 | 0.00 | 92 | 1008.8 |
| 20260505170412 | 13 | 45 | 8.0 | 11.3 | 0.00 | 0.00 | 0.00 | 92 | 1008.8 |
| 20260505165211 | 13 | 23 | 9.7 | 11.3 | 0.00 | 0.00 | 0.00 | 92 | 1008.8 |
| 20260505163950 | 13 | 45 | 6.4 | 9.7 | 0.00 | 0.00 | 0.00 | 93 | 1008.8 |
| 20260505162749 | 13 | 56 | 11.3 | 16.1 | 0.00 | 0.00 | 0.00 | 93 | 1008.8 |
| 20260505161608 | 13 | 45 | 8.0 | 14.5 | 0.00 | 0.00 | 0.00 | 94 | 1008.8 |
| 20260505160346 | 13 | 45 | 9.7 | 11.3 | 0.00 | 0.00 | 0.00 | 94 | 1008.8 |
| 20260505152742 | 13 | 28 | 8.0 | 12.9 | 0.00 | 0.00 | 0.00 | 95 | 1008.8 |
| 20260505151542 | 13 | 23 | 6.4 | 11.3 | 0.00 | 0.00 | 0.00 | 95 | 1008.8 |
| 20260505150341 | 13 | 338 | 6.4 | 6.4 | 0.00 | 0.00 | 0.00 | 95 | 1008.8 |
| 20260505140334 | 13 | 338 | 6.4 | 6.4 | 0.00 | 0.00 | 0.00 | 97 | 1008.8 |
| 20260505123946 | 12 | 338 | 6.4 | 6.4 | 0.00 | 0.00 | 0.00 | 100 | 1008.8 |
| 20260505122745 | 12 | 338 | 6.4 | 6.4 | 0.00 | 0.00 | 0.00 | 100 | 1008.8 |
| 20260505121524 | 12 | 338 | 6.4 | 6.4 | 0.00 | 0.00 | 0.00 | 100 | 1008.8 |
| 20260505120323 | 11 | 338 | 6.4 | 6.4 | 0.00 | 0.00 | 0.00 | 100 | 1008.8 |
| 20260505115122 | 11 | 338 | 6.4 | 6.4 | 0.00 | 0.00 | 0.00 | 100 | 1008.8 |
| 20260505113921 | 11 | 338 | 6.4 | 6.4 | 0.00 | 0.00 | 0.00 | 100 | 1008.8 |
| 20260505112720 | 11 | 338 | 6.4 | 6.4 | 0.00 | 0.00 | 0.00 | 100 | 1008.8 |
| 20260505111519 | 11 | 338 | 6.4 | 6.4 | 0.00 | 0.00 | 0.00 | 100 | 1008.8 |
| 20260505110317 | 11 | 338 | 6.4 | 6.4 | 0.00 | 0.00 | 0.00 | 100 | 1008.8 |
| 20260505101611 | 11 | 338 | 6.4 | 6.4 | 0.00 | 0.00 | 0.00 | 100 | 1008.8 |
| 20260505100410 | 11 | 338 | 6.4 | 6.4 | 0.00 | 0.00 | 0.00 | 100 | 1008.8 |
| 20260505095209 | 11 | 338 | 6.4 | 6.4 | 0.00 | 0.00 | 0.00 | 100 | 1008.8 |
| 20260505094008 | 11 | 338 | 6.4 | 6.4 | 0.00 | 0.00 | 0.00 | 100 | 1008.8 |
| 20260505081620 | 10 | 338 | 6.4 | 6.4 | 0.00 | 0.00 | 0.00 | 100 | 1008.8 |
| 20260505080359 | 10 | 338 | 6.4 | 6.4 | 0.00 | 0.00 | 0.00 | 100 | 1008.8 |
| 20260505075157 | 10 | 338 | 6.4 | 6.4 | 0.00 | 0.00 | 0.00 | 100 | 1008.8 |
| 20260505073957 | 10 | 338 | 6.4 | 6.4 | 0.00 | 0.00 | 0.00 | 100 | 1008.8 |
| 20260505072755 | 10 | 338 | 6.4 | 6.4 | 0.00 | 0.00 | 0.00 | 100 | 1008.8 |
| 20260505071554 | 10 | 338 | 6.4 | 6.4 | 0.00 | 0.00 | 0.00 | 100 | 1008.8 |
| 20260505070352 | 11 | 338 | 6.4 | 6.4 | 0.00 | 0.00 | 0.00 | 100 | 1008.8 |
| 20260505065211 | 11 | 338 | 6.4 | 6.4 | 0.00 | 0.00 | 0.00 | 100 | 1008.8 |
| 20260505063950 | 11 | 338 | 6.4 | 6.4 | 0.00 | 0.00 | 0.00 | 100 | 1008.8 |
| 20260505062749 | 10 | 338 | 6.4 | 6.4 | 0.00 | 0.00 | 0.00 | 100 | 1008.8 |
| 20260505061547 | 10 | 338 | 6.4 | 6.4 | 0.00 | 0.00 | 0.00 | 100 | 1008.8 |
| 20260505060346 | 11 | 338 | 6.4 | 6.4 | 0.00 | 0.00 | 0.00 | 100 | 1008.8 |
| 20260505055146 | 11 | 338 | 6.4 | 6.4 | 0.00 | 0.00 | 0.00 | 100 | 1008.8 |
| 20260505053945 | 10 | 338 | 6.4 | 6.4 | 0.00 | 0.00 | 0.00 | 100 | 1008.8 |
| 20260505052743 | 10 | 338 | 6.4 | 6.4 | 0.00 | 0.00 | 0.00 | 100 | 1008.8 |
| 20260505051543 | 10 | 338 | 6.4 | 6.4 | 0.00 | 0.00 | 0.00 | 100 | 1008.8 |
| 20260505050341 | 11 | 338 | 6.4 | 6.4 | 0.00 | 0.00 | 0.00 | 100 | 1008.8 |
| 20260505041537 | 11 | 338 | 6.4 | 6.4 | 0.00 | 0.00 | 0.00 | 100 | 1008.8 |
| 20260505040336 | 11 | 338 | 6.4 | 6.4 | 0.00 | 0.00 | 0.00 | 100 | 1008.8 |
| 20260505035135 | 11 | 338 | 6.4 | 6.4 | 0.00 | 0.00 | 0.00 | 100 | 1008.8 |
| 20260505033934 | 11 | 338 | 6.4 | 6.4 | 0.00 | 0.00 | 0.00 | 100 | 1008.8 |
| 20260505032733 | 11 | 338 | 6.4 | 6.4 | 0.00 | 0.00 | 0.00 | 100 | 1008.8 |
| 20260505031531 | 11 | 338 | 6.4 | 6.4 | 0.00 | 0.00 | 0.00 | 100 | 1008.8 |
| 20260505030350 | 11 | 338 | 6.4 | 6.4 | 0.00 | 0.00 | 0.00 | 100 | 1008.8 |
| 20260505025129 | 11 | 338 | 6.4 | 6.4 | 0.00 | 0.00 | 0.00 | 100 | 1008.8 |
| 20260505023928 | 11 | 338 | 6.4 | 6.4 | 0.00 | 0.00 | 0.00 | 100 | 1008.8 |
| 20260505022727 | 11 | 338 | 6.4 | 6.4 | 0.00 | 0.00 | 0.00 | 100 | 1008.8 |
| 20260505021526 | 11 | 338 | 6.4 | 6.4 | 0.00 | 0.00 | 0.00 | 100 | 1008.8 |
| 20260505020324 | 11 | 338 | 6.4 | 6.4 | 0.00 | 0.00 | 0.00 | 100 | 1008.8 |
| 20260505015123 | 11 | 338 | 6.4 | 6.4 | 0.00 | 0.00 | 0.00 | 100 | 1008.8 |
| 20260505013922 | 12 | 338 | 6.4 | 6.4 | 0.00 | 0.00 | 0.00 | 100 | 1008.8 |
| 20260505012723 | 12 | 338 | 6.4 | 6.4 | 0.00 | 0.00 | 0.00 | 100 | 1008.8 |
| 20260505011520 | 12 | 338 | 6.4 | 6.4 | 0.00 | 0.00 | 0.00 | 100 | 1008.8 |
| 20260505010320 | 12 | 338 | 6.4 | 6.4 | 0.00 | 0.00 | 0.00 | 100 | 1008.8 |
| 20260505005118 | 12 | 338 | 6.4 | 6.4 | 0.00 | 0.00 | 0.00 | 100 | 1008.8 |
| 20260505003918 | 12 | 338 | 6.4 | 6.4 | 0.00 | 0.00 | 0.00 | 100 | 1008.8 |
| 20260505002716 | 12 | 338 | 6.4 | 6.4 | 0.00 | 0.00 | 0.00 | 100 | 1008.8 |
| 20260505000414 | 12 | 338 | 6.4 | 6.4 | 0.00 | 0.00 | 0.00 | 100 | 1008.8 |
| 20260504235213 | 13 | 338 | 6.4 | 6.4 | 0.00 | 0.00 | 0.00 | 100 | 1011.4 |
| 20260504234012 | 13 | 338 | 6.4 | 6.4 | 0.00 | 0.00 | 0.00 | 100 | 1012.2 |
| 20260504232810 | 13 | 338 | 6.4 | 6.4 | 0.00 | 0.00 | 0.00 | 100 | 1012.2 |
| 20260504231609 | 13 | 338 | 6.4 | 6.4 | 0.00 | 0.00 | 0.00 | 100 | 1012.2 |
| 20260504230409 | 13 | 338 | 6.4 | 6.4 | 0.00 | 0.00 | 0.00 | 100 | 1012.2 |
| 20260504225228 | 13 | 338 | 6.4 | 6.4 | 0.00 | 0.00 | 0.00 | 100 | 1012.2 |